Back to catalog

STARLINK-4447

AliveCommunicationsSSO
NORAD 53472·PAYLOAD·🇺🇸 United States

Launched Aug 12, 2022 from Vandenberg Space Force Base

Loading…

Next Passes (next 24 hours)

TLE

FreshSource: CelesTrak SupGP

Epoch: Sep 14, 2026, 13:16 UTC

1 53472C 22099H   26257.55326389 -.00017553  00000+0 -10675-2 0  2576
2 53472  97.2860  11.6740 0001629  89.2575 204.4941 15.10545735    19

Track STARLINK-4447 in real time with AllMySat

Download on the App Store